Date,Installs,Update checks
2023-09-07,0,0
2023-09-08,5,1
2023-09-09,5,2
2023-09-10,10,4
2023-09-11,8,10
2023-09-12,6,6
2023-09-13,4,5
2023-09-14,3,5
2023-09-15,6,8
2023-09-16,5,6
2023-09-17,2,10
2023-09-18,9,9
2023-09-19,10,5
2023-09-20,4,6
2023-09-21,9,9
2023-09-22,5,9
2023-09-23,4,13
2023-09-24,4,11
2023-09-25,3,7
2023-09-26,6,12
2023-09-27,2,16
2023-09-28,3,14
2023-09-29,1,13
2023-09-30,2,11
2023-10-01,1,14
2023-10-02,1,14
2023-10-03,2,13
2023-10-04,2,20
2023-10-05,5,13
2023-10-06,0,12
2023-10-07,3,15
2023-10-08,4,21
2023-10-09,4,14
2023-10-10,5,22
2023-10-11,4,16
2023-10-12,3,19
2023-10-13,2,21
2023-10-14,1,18
2023-10-15,7,22
2023-10-16,3,19
2023-10-17,2,21
2023-10-18,4,23
2023-10-19,1,22
2023-10-20,3,17
2023-10-21,1,19
2023-10-22,1,28
2023-10-23,7,30
2023-10-24,2,30
2023-10-25,5,27
2023-10-26,1,25
2023-10-27,1,24
2023-10-28,1,21
2023-10-29,2,29
2023-10-30,4,24
2023-10-31,3,30
2023-11-01,2,29
2023-11-02,1,30
2023-11-03,2,25
2023-11-04,1,34
2023-11-05,2,38
2023-11-06,3,37
2023-11-07,3,40
2023-11-08,5,38
2023-11-09,1,37
2023-11-10,4,29
2023-11-11,0,27
2023-11-12,0,39
2023-11-13,2,34
2023-11-14,1,38
2023-11-15,4,28
2023-11-16,1,35
2023-11-17,1,26
2023-11-18,2,24
2023-11-19,1,35
2023-11-20,2,33
2023-11-21,20,40
2023-11-22,15,45
2023-11-23,6,34
2023-11-24,7,39
2023-11-25,2,31
2023-11-26,1,39
2023-11-27,4,37
2023-11-28,3,48
2023-11-29,2,34
2023-11-30,6,41
2023-12-01,4,27
2023-12-02,2,28
2023-12-03,0,38
2023-12-04,2,35
2023-12-05,1,30
2023-12-06,4,36
2023-12-07,2,21
2023-12-08,4,27
2023-12-09,1,21
2023-12-10,4,25
2023-12-11,3,35
2023-12-12,3,33
2023-12-13,0,29
2023-12-14,4,23
2023-12-15,2,17
2023-12-16,9,24
2023-12-17,14,31
2023-12-18,8,28
2023-12-19,6,28
2023-12-20,1,29
2023-12-21,3,28
2023-12-22,4,22
2023-12-23,2,19
2023-12-24,0,13
2023-12-25,4,19
2023-12-26,1,21
2023-12-27,2,20
2023-12-28,3,19
2023-12-29,1,24
2023-12-30,1,25
2023-12-31,2,17
2024-01-01,3,24
2024-01-02,3,26
2024-01-03,2,29
2024-01-04,1,25
2024-01-05,3,25
2024-01-06,3,23
2024-01-07,4,34
2024-01-08,3,34
2024-01-09,3,33
2024-01-10,3,42
2024-01-11,8,28
2024-01-12,5,34
2024-01-13,2,26
2024-01-14,4,39
2024-01-15,3,34
2024-01-16,15,43
2024-01-17,5,43
2024-01-18,5,36
2024-01-19,3,31
2024-01-20,4,30
2024-01-21,3,40
2024-01-22,5,31
2024-01-23,10,41
2024-01-24,9,42
2024-01-25,13,41
2024-01-26,13,35
2024-01-27,9,39
2024-01-28,12,42
2024-01-29,14,47
2024-01-30,12,35
2024-01-31,9,44
2024-02-01,14,39
2024-02-02,12,32
2024-02-03,16,44
2024-02-04,17,50
2024-02-05,20,51
2024-02-06,21,43
2024-02-07,13,52
2024-02-08,16,40
2024-02-09,22,43
2024-02-10,18,40
2024-02-11,17,48
2024-02-12,21,53
2024-02-13,28,52
2024-02-14,32,56
2024-02-15,14,58
2024-02-16,25,53
2024-02-17,8,38
2024-02-18,14,52
2024-02-19,14,54
2024-02-20,16,114
2024-02-21,17,89
2024-02-22,18,59
2024-02-23,13,55
2024-02-24,6,56
2024-02-25,4,47
2024-02-26,15,67
2024-02-27,17,65
2024-02-28,15,66
2024-02-29,14,69
2024-03-01,10,66
2024-03-02,5,59
2024-03-03,7,66
2024-03-04,9,68
2024-03-05,14,69
2024-03-06,27,72
2024-03-07,15,70
2024-03-08,13,57
2024-03-09,7,61
2024-03-10,14,69
2024-03-11,19,69
2024-03-12,17,74
2024-03-13,15,62
2024-03-14,12,77
2024-03-15,10,72
2024-03-16,7,56
2024-03-17,6,71
2024-03-18,8,67
2024-03-19,15,73
2024-03-20,14,74
2024-03-21,10,67
2024-03-22,3,69
2024-03-23,4,53
2024-03-24,5,61
2024-03-25,2,70
2024-03-26,7,54
2024-03-27,4,64
2024-03-28,4,64
2024-03-29,2,47
2024-03-30,0,45
2024-03-31,2,53
2024-04-01,4,55
2024-04-02,2,58
2024-04-03,2,59
2024-04-04,4,50
2024-04-05,4,54
2024-04-06,5,47
2024-04-07,3,54
2024-04-08,5,59
2024-04-09,9,52
2024-04-10,9,54
2024-04-11,3,68
2024-04-12,0,59
2024-04-13,1,56
2024-04-14,2,52
2024-04-15,8,56
2024-04-16,9,76
2024-04-17,6,65
2024-04-18,7,73
2024-04-19,3,64
2024-04-20,5,49
2024-04-21,11,62
2024-04-22,7,74
2024-04-23,10,70
2024-04-24,11,71
2024-04-25,6,79
2024-04-26,5,60
2024-04-27,3,45
2024-04-28,7,56
2024-04-29,9,57
2024-04-30,8,68
2024-05-01,4,56
2024-05-02,8,78
2024-05-03,4,62
2024-05-04,8,61
2024-05-05,3,65
2024-05-06,13,76
2024-05-07,9,73
2024-05-08,8,68
2024-05-09,6,64
2024-05-10,4,62
2024-05-11,7,49
2024-05-12,4,67
2024-05-13,6,74
2024-05-14,8,80
2024-05-15,6,89
2024-05-16,3,74
2024-05-17,3,73
2024-05-18,2,59
2024-05-19,1,66
2024-05-20,5,70
2024-05-21,5,76
2024-05-22,4,89
2024-05-23,4,83
2024-05-24,0,72
2024-05-25,4,71
2024-05-26,2,62
2024-05-27,8,76
2024-05-28,1,82
2024-05-29,0,87
2024-05-30,4,73
2024-05-31,2,66
2024-06-01,1,58
2024-06-02,3,54
